Location: Asarope
(8.2500°N, 4.4833°E)
Time: 00:11:22
(UTC+00:00)

Cosmos 405 - Pass Details

Date: 07 June 2020
Orbit: 451 x 464 km, 81.3° (Epoch: 13 July)

Event Time Altitude Azimuth Distance (km) Brightness Sun altitude
Rises 04:30:28 0° 357° (N) 2,479 7.0 -12.8°
Reaches altitude 10° 04:32:32 10° 360° (N) 1,607 6.0 -12.3°
Maximum altitude 04:36:02 72° 85° (E) 488 3.2 -11.5°
Drops below altitude 10° 04:39:33 10° 170° (S) 1,610 5.6 -10.7°
Sets 04:41:38 0° 172° (S) 2,484 6.5 -10.3°
